Back to catalog

STARLINK-34496

AliveCommunicationsVLEO
NORAD 64476·PAYLOAD·🇺🇸 United States

Launched Jun 23, 2025 from Cape Canaveral Space Force Station

Loading…

Next Passes (next 24 hours)

TLE

FreshSource: CelesTrak SupGP

Epoch: Sep 14, 2026, 15:20 UTC

1 64476C 25133E   26257.63937500  .00041678  00000+0  12317-2 0  2574
2 64476  53.1590 313.4208 0001486  73.8789  89.7221 15.34361678    18

Track STARLINK-34496 in real time with AllMySat

Download on the App Store